レモン彗星

C/2023 H5 ( Lemmon )

English version
Home page
Updated on January 26, 2025

---------------------------------------------------------------------

・ プロフィール

発見日 2023年4月19日
発見光度 20.2等
発見者 Mt. Lemmon Survey

・ 写真集

・ 軌道要素

Epoch 2024 Oct. 17.0 TT = JDT 2460600.5
T 2025 June 30.18741 TT                                 Rudenko
q   4.3128244            (2000.0)            P               Q
z  -0.0000836      Peri.   60.08411     -0.42554438     +0.83567309
 +/-0.0000007      Node   159.48127     -0.07930989     -0.41666039
e   1.0003604      Incl.   97.85930     +0.90145545     +0.35783321
From 672 observations 2022 Dec. 1-2024 Nov. 12, mean residual 0".5.

・ 星図

・ 光度変化

        m1 = 2.5 + 5 logΔ + 15.0 log r           [    ,-360]  (              〜2024年 7月 5日)
        m1 = 6.5 + 5 logΔ + 10.0 log r(t + 120)  [-360,    ]  (2024年 7月 5日〜              )

---------------------------------------------------------------------

軌道要素はM.P.E.C. 2024-V192に掲載されたものです。
星図はステラナビゲータ Ver.11 (アストロアーツ) で作成したものです。
光度グラフはComet for Windowsで作成したものです。

---------------------------------------------------------------------

Copyright(C) Seiichi Yoshida (comet@aerith.net). All rights reserved.